Weather History for KTFP - November, 2013

Change the Weather History Date:

Tuesday, November 12, 2013

  Actual Average Record
Temperature  
Mean Temperature 66 °F -  
Max Temperature 76 °F - - ()
Min Temperature 57 °F - - ()
Cooling Degree Days 2    
Growing Degree Days 16 (Base 50)    
Moisture  
Dew Point 56 °F    
Average Humidity 73    
Maximum Humidity 99    
Minimum Humidity 44    
Precipitation  
Precipitation 0.00 in - - ()
Sea Level Pressure  
Sea Level Pressure 30.33 in    
Wind  
Wind Speed 13 mph (NNE)    
Max Wind Speed 28 mph    
Max Gust Speed 37 mph    
Visibility 9 miles    
Events      
T = Trace of Precipitation, MM = Missing Value Source: NWS Daily Summary

Daily Weather History Graph

Daily Weather History Graph

Search for Another Location

Airport or City:

Trip Planner

Search our weather history database for the weather conditions in past years. The results will help you decide how hot, cold, wet, or windy it might be!

Date:

Astronomy

Nov. 12, 2013 Rise Set
Actual Time 6:48 AM CST 5:37 PM CST
Civil Twilight 6:23 AM CST 6:02 PM CST
Nautical Twilight 5:55 AM CST 6:30 PM CST
Astronomical Twilight 5:27 AM CST 6:58 PM CST
Moon 2:30 PM CST (11/12) 2:04 AM CST (11/12)
Length of Visible Light 11h 38m
Length of Day
10h 49m
Waxing Gibbous, 76% of the Moon is Illuminated
Nov 12
Waxing Gibbous
Nov 17
Full
Nov 25
Last Quarter
Dec 2
New
Dec 9
First Quarter

Hourly Weather History & Observations

Time (CST) Temp. Dew Point Humidity Pressure Visibility Wind Dir Wind Speed Gust Speed Precip Events Conditions
12:15 AM 64.6 °F 64.0 °F 98% 30.18 in 10.0 mi NNE 5.8 mph - N/A   Clear
12:35 AM 65.5 °F 64.9 °F 98% 30.18 in 10.0 mi NE 6.9 mph - N/A   Clear
12:55 AM 66.0 °F 65.3 °F 98% 30.18 in 10.0 mi NNE 6.9 mph - N/A   Clear
1:15 AM 66.2 °F 65.5 °F 98% 30.19 in 10.0 mi North 3.5 mph - N/A   Clear
1:35 AM 65.7 °F 64.9 °F 98% 30.20 in 7.0 mi North 4.6 mph - N/A   Clear
1:55 AM 64.6 °F 64.0 °F 98% 30.20 in 5.0 mi North 4.6 mph - N/A   Clear
2:15 AM 63.5 °F 63.1 °F 99% 30.20 in 5.0 mi North 5.8 mph - N/A   Clear
2:35 AM 63.5 °F 63.0 °F 98% 30.20 in 5.0 mi North 5.8 mph - N/A   Clear
2:55 AM 63.1 °F 62.8 °F 99% 30.20 in 5.0 mi North 5.8 mph - N/A   Clear
3:15 AM 62.8 °F 62.4 °F 99% 30.20 in 7.0 mi North 5.8 mph - N/A   Clear
3:35 AM 61.9 °F 61.7 °F 99% 30.21 in 7.0 mi North 5.8 mph - N/A   Clear
3:55 AM 61.7 °F 61.5 °F 99% 30.21 in 7.0 mi North 8.1 mph - N/A   Clear
4:15 AM 61.7 °F 61.5 °F 99% 30.21 in 7.0 mi North 5.8 mph - N/A   Clear
4:35 AM 61.7 °F 61.2 °F 98% 30.22 in 7.0 mi North 6.9 mph - N/A   Scattered Clouds
4:55 AM 61.9 °F 61.5 °F 99% 30.23 in 7.0 mi North 6.9 mph - N/A   Mostly Cloudy
5:15 AM 62.1 °F 61.7 °F 99% 30.23 in 7.0 mi North 9.2 mph - N/A   Scattered Clouds
5:35 AM 62.6 °F 61.7 °F 97% 30.23 in 10.0 mi NNE 11.5 mph - N/A   Clear
5:55 AM 63.0 °F 60.6 °F 92% 30.23 in 10.0 mi NNE 13.8 mph - N/A   Clear
6:15 AM 62.8 °F 59.7 °F 90% 30.24 in 10.0 mi NNE 12.7 mph - N/A   Clear
6:35 AM 62.4 °F 59.5 °F 90% 30.24 in 10.0 mi NNE 10.4 mph - N/A   Clear
6:55 AM 62.2 °F 59.9 °F 92% 30.25 in 10.0 mi NNE 13.8 mph - N/A   Clear
7:15 AM 62.2 °F 59.9 °F 92% 30.26 in 10.0 mi NE 12.7 mph - N/A   Clear
7:35 AM 62.6 °F 60.1 °F 91% 30.28 in 10.0 mi NNE 11.5 mph - N/A   Scattered Clouds
7:55 AM 63.3 °F 60.8 °F 91% 30.29 in 10.0 mi NNE 12.7 mph - N/A   Clear
8:15 AM 63.9 °F 59.7 °F 86% 30.30 in 10.0 mi NNE 16.1 mph 20.7 mph N/A   Clear
8:35 AM 64.8 °F 58.1 °F 79% 30.31 in 10.0 mi NNE 19.6 mph - N/A   Clear
8:55 AM 65.3 °F 57.4 °F 76% 30.31 in 10.0 mi NNE 17.3 mph 24.2 mph N/A   Clear
9:15 AM 66.7 °F 56.5 °F 70% 30.32 in 10.0 mi NNE 19.6 mph 24.2 mph N/A   Clear
9:35 AM 68.2 °F 56.3 °F 66% 30.32 in 10.0 mi NNE 19.6 mph - N/A   Clear
9:55 AM 68.4 °F 56.3 °F 65% 30.33 in 10.0 mi NNE 17.3 mph 24.2 mph N/A   Clear
10:15 AM 69.4 °F 55.6 °F 61% 30.33 in 10.0 mi NNE 19.6 mph 27.6 mph N/A   Mostly Cloudy
10:35 AM 70.3 °F 55.6 °F 59% 30.33 in 10.0 mi NNE 21.9 mph 27.6 mph N/A   Overcast
10:55 AM 70.9 °F 55.4 °F 58% 30.33 in 10.0 mi NNE 25.3 mph - N/A   Overcast
11:15 AM 72.0 °F 54.7 °F 54% 30.33 in 10.0 mi NNE 19.6 mph 29.9 mph N/A   Overcast
11:35 AM 72.5 °F 53.2 °F 51% 30.33 in 10.0 mi NNE 24.2 mph 32.2 mph N/A   Overcast
11:55 AM 73.2 °F 52.5 °F 48% 30.32 in 10.0 mi NE 27.6 mph 36.8 mph N/A   Overcast
12:15 PM 74.1 °F 51.8 °F 46% 30.32 in 10.0 mi NE 26.5 mph 33.4 mph N/A   Overcast
12:35 PM 74.1 °F 51.4 °F 45% 30.31 in 10.0 mi NNE 26.5 mph 33.4 mph N/A   Overcast
12:55 PM 74.3 °F 51.4 °F 45% 30.31 in 10.0 mi NE 21.9 mph 32.2 mph N/A   Overcast
1:15 PM 74.1 °F 51.6 °F 45% 30.30 in 10.0 mi NNE 25.3 mph 31.1 mph N/A   Mostly Cloudy
1:35 PM 74.7 °F 52.2 °F 45% 30.31 in 10.0 mi NE 23.0 mph 32.2 mph N/A   Overcast
1:55 PM 73.9 °F 52.2 °F 46% 30.31 in 10.0 mi NNE 25.3 mph 31.1 mph N/A   Mostly Cloudy
2:15 PM 76.1 °F 52.7 °F 44% 30.31 in 10.0 mi NNE 25.3 mph 32.2 mph N/A   Mostly Cloudy
2:35 PM 76.3 °F 53.2 °F 45% 30.31 in 10.0 mi NNE 18.4 mph 27.6 mph N/A   Scattered Clouds
2:55 PM 73.9 °F 55.0 °F 52% 30.32 in 10.0 mi North 21.9 mph 31.1 mph N/A   Mostly Cloudy
3:15 PM 71.4 °F 56.3 °F 59% 30.33 in 10.0 mi North 21.9 mph 32.2 mph N/A   Mostly Cloudy
3:35 PM 71.2 °F 55.6 °F 58% 30.33 in 10.0 mi North 25.3 mph 32.2 mph N/A   Scattered Clouds
3:55 PM 69.3 °F 54.9 °F 60% 30.34 in 10.0 mi North 21.9 mph 31.1 mph N/A   Clear
4:15 PM 67.1 °F 54.0 °F 63% 30.35 in 10.0 mi North 23.0 mph 32.2 mph N/A   Clear
4:35 PM 65.3 °F 53.1 °F 65% 30.36 in 10.0 mi NNE 21.9 mph 28.8 mph N/A   Clear
4:55 PM 64.6 °F 52.9 °F 66% 30.37 in 10.0 mi North 21.9 mph 27.6 mph N/A   Clear
5:15 PM 63.3 °F 52.2 °F 67% 30.38 in 10.0 mi North 23.0 mph 27.6 mph N/A   Clear
5:35 PM 62.6 °F 51.8 °F 68% 30.38 in 10.0 mi North 17.3 mph 24.2 mph N/A   Clear
5:55 PM 62.2 °F 51.6 °F 68% 30.40 in 10.0 mi North 19.6 mph 26.5 mph N/A   Clear
6:15 PM 61.7 °F 51.6 °F 69% 30.41 in 10.0 mi North 16.1 mph 24.2 mph N/A   Clear
6:35 PM 61.3 °F 51.4 °F 70% 30.42 in 10.0 mi North 24.2 mph - N/A   Clear
6:55 PM 61.0 °F 51.1 °F 70% 30.43 in 10.0 mi North 17.3 mph 26.5 mph N/A   Scattered Clouds
7:15 PM 60.8 °F 51.3 °F 71% 30.44 in 10.0 mi NNE 21.9 mph 28.8 mph N/A   Scattered Clouds
7:35 PM 61.0 °F 51.3 °F 70% 30.45 in 10.0 mi NNE 21.9 mph 27.6 mph N/A   Mostly Cloudy
7:55 PM 61.3 °F 51.3 °F 69% 30.46 in 10.0 mi North 20.7 mph 24.2 mph N/A   Overcast
8:15 PM 61.3 °F 50.7 °F 68% 30.47 in 10.0 mi NNE 21.9 mph 26.5 mph N/A   Overcast
8:35 PM 61.2 °F 50.4 °F 68% 30.48 in 10.0 mi North 24.2 mph 29.9 mph N/A   Overcast
8:55 PM 60.8 °F 49.1 °F 65% 30.49 in 10.0 mi NNE 17.3 mph 24.2 mph N/A   Overcast
9:15 PM 60.6 °F 48.9 °F 65% 30.50 in 10.0 mi NNE 20.7 mph 25.3 mph N/A   Overcast
9:35 PM 60.4 °F 48.6 °F 65% 30.51 in 10.0 mi NNE 19.6 mph 23.0 mph N/A   Overcast
9:55 PM 60.3 °F 48.4 °F 65% 30.51 in 10.0 mi NNE 15.0 mph 21.9 mph N/A   Overcast
10:15 PM 60.1 °F 48.2 °F 65% 30.52 in 10.0 mi NNE 17.3 mph 24.2 mph N/A   Overcast
10:35 PM 59.7 °F 47.5 °F 64% 30.53 in 10.0 mi NNE 18.4 mph 24.2 mph N/A   Overcast
10:55 PM 59.2 °F 47.3 °F 65% 30.53 in 10.0 mi NNE 18.4 mph 24.2 mph N/A   Overcast
11:15 PM 58.8 °F 46.8 °F 64% 30.53 in 10.0 mi NNE 20.7 mph 27.6 mph N/A   Overcast
11:35 PM 57.6 °F 46.2 °F 66% 30.54 in 10.0 mi NNE 24.2 mph 33.4 mph N/A   Overcast
11:55 PM 57.2 °F 45.7 °F 65% 30.53 in 10.0 mi NNE 21.9 mph 29.9 mph N/A   Mostly Cloudy